Regional Weather Roundup
Issued by NWS

Home | Current Version | Previous Version | Text Only | Print | Product List | Glossary On
Versions: 1 2 3 4 5 6 7 8 9 10 11 12 13 14 15 16 17 18 19 20 21 22 23 24 25 26 27 28 29 30 31 32 33 34 35 36 37 38 39 40 41 42 43 44 45 46 47 48 49 50
000
ASUS45 KTFX 252319
RWRMT
MONTANA HOURLY WEATHER ROUNDUP
NATIONAL WEATHER SERVICE GREAT FALLS MT
419 PM MST TUE NOV 25 2014

NOTE: "FAIR" INDICATES FEW OR NO CLOUDS BELOW 12000 FEET WITH NO
SIGNIFICANT WEATHER AND/OR OBSTRUCTIONS TO VISIBILITY.

* THESE STATIONS ARE NOT UNDER NWS QUALITY CONTROL. THEY DO NOT
   REPORT WEATHER SUCH AS PRECIPITATION OR FOG.

MTZ001>007-043-260000-
WEST OF THE DIVIDE
CITY           SKY/WX    TMP DP  RH WIND       PRES   REMARKS
KALISPELL      FOG       36  34  92 CALM      30.11R
MISSOULA       LGT RAIN  36  36 100 W6        30.17R WCI  31
BUTTE          LGT SNOW  30  28  92 W8        30.07R VSB 3/4  WCI  22
MULLAN PASS    SNOW      28  25  89 CALM      30.09R VSB M1/4
* ESSEX        N/A       34  32  92 N/A        N/A
* EUREKA APT   CLOUDY    36  32  85 CALM      30.15R
* HAMILTON APT CLOUDY    32  32 100 N3        30.15R VSB 3/4
* LIBBY APT    CLOUDY    36  36 100 CALM      30.16R
* LINCOLN      N/A       33  30  89 S4G9       N/A
* LOOKOUT PASS N/A       31  31 100 VRB6       N/A   WCI  25
* POLSON       N/A       35  34  96 S2         N/A
* RONAN APT    CLOUDY    37  34  89 SE8        N/A   WCI  31
* SEELEY LAKE  N/A       34  31  89 S1G11      N/A
* THOMP F APT  CLOUDY    33  29  85 E2G7       N/A
* YAAK HILL    N/A       36  33  89 N1         N/A
$$

MTZ008-052>055-260000-
SOUTHWEST MONTANA
CITY           SKY/WX    TMP DP  RH WIND       PRES   REMARKS
BOZEMAN        LGT SNOW  34  30  85 VRB3      30.08R VSB 3/4
DILLON         CLOUDY    43  34  71 SW10      30.02R
* W YELLOWSTON CLOUDY    30  27  89 SW5G13     N/A   WCI  25
* ENNIS APT    CLOUDY    37  34  89 S5         N/A   WCI  33
* THREE FORKS  CLOUDY    36 -11  12 N/A        N/A
* BOULDER HILL N/A       29  26  89 N11        N/A   WCI  19
* MONIDA PASS  N/A       29  29 100 SE7        N/A   WCI  22
* RAYNOLDS PAS N/A       31  17  56 S4         N/A
* WHITEHALL    N/A       38  35  89 W1G6       N/A
* WISE RIVER   N/A       35  33  92 NW6G11     N/A   WCI  30
$$

MTZ009>010-012-014-046-048-049-054-260000-
EAST SLOPES AND CENTRAL MONTANA
CITY           SKY/WX    TMP DP  RH WIND       PRES   REMARKS
CUT BANK       CLOUDY    34  19  54 N8        30.09R WCI  27
GREAT FALLS    CLOUDY    32  27  82 SW7       30.11R WCI  25
HELENA         FOG       36  32  85 SW3       30.10R
MALMSTROM AFB  CLOUDY    34  23  64 W7        30.13R WCI  28
* CONRAD       CLOUDY    36  21  54 CALM       N/A
* DEARBORN     N/A       34  27  76 N5         N/A   WCI  29
* EAST GLACIER N/A       28  20  72 SE4        N/A
* MONARCH      N/A       24  20  85 W7         N/A   WCI  16
* PENDROY      N/A       32  20  61 NE3        N/A
* ROGERS PASS  N/A       27  24  88 NW1        N/A
* SAINT MARY   N/A       32  20  61 N5         N/A   WCI  27
* SWEET GRASS  N/A       30  24  78 VRB8       N/A   WCI  22
* WHITE SULPH  N/A       29  27  92 NW8G15     N/A   WCI  21
$$

MTZ011-013-016-021-035-040-045-047-050-051-260000-
NORTH CENTRAL MONTANA
CITY           SKY/WX    TMP DP  RH WIND       PRES   REMARKS
HAVRE          CLOUDY    34  25  70 N8        30.08R WCI  27
LEWISTOWN      CLOUDY    30  25  82 W17       30.04R WCI  18
* N BAR RANCH  PTSUNNY   28  21  75 NW20G26   30.00R WCI  15
* CHINOOK      PTSUNNY   28  23  81 NW3       30.10R
* FORT BENTON  CLOUDY    37  21  52 W10       30.12R WCI  30
* CHESTER      N/A       34  23  64 NW9G15     N/A   WCI  27
* DENTON       N/A       33  23  67 W14        N/A   WCI  23
* GEYSER       N/A       29  25  85 W14        N/A   WCI  18
* JUDITH GAP   N/A       27  25  92 NW26G33    N/A   WCI  12
* LOMA         N/A       37  22  55 W9         N/A   WCI  30
$$

MTZ017>020-022>027-061-062-260000-
NORTHEAST MONTANA
CITY           SKY/WX    TMP DP  RH WIND       PRES   REMARKS
GLASGOW        HAZE      27  21  78 N17       29.98R WCI  14
GLENDIVE       PTSUNNY   32  27  82 NW24G32   29.87R WCI  19
JORDAN         CLOUDY    34  25  70 NW22G32   29.95R WCI  22
SIDNEY         CLOUDY    30  25  82 NW18G30   29.91R WCI  18
WOLF POINT     CLOUDY    30  23  75 N21G26    29.96R WCI  17
* BEAVER HILL  N/A       33  28  82 NW23G32    N/A   WCI  20
* CIRCLE       N/A       32  28  85 W15        N/A   WCI  22
* LINDSAY DVD  N/A       30  27  89 NW24G34    N/A   WCI  16
* NAVAJO       N/A       22  20  92 N16G22     N/A   WCI   8
* PLENTYWOOD A PTCLDY    23  19  85 N13G22    29.94R WCI  11
* POPLAR APT   SUNNY     28  23  81 N/A       29.95R
* SACO         N/A       29  22  75 N17G22     N/A   WCI  17
$$

MTZ028>042-056>058-260000-
SOUTHCENTRAL AND SOUTHEAST MONTANA
CITY           SKY/WX    TMP DP  RH WIND       PRES   REMARKS
BAKER          LGT SNOW  32  28  85 NW24G36   29.83R WCI  19
BILLINGS       CLOUDY    36  21  54 NW18G30   30.04R WCI  26
LIVINGSTON     SNOW      34  30  85 NW8       30.05R VSB 1/2  WCI  27
MILES CITY     CLOUDY    36  25  64 NW23G31   29.91R WCI  24
* BIG TIMBER A CLOUDY    28  25  89 NE7       30.07R VSB 1 1/4 WCI  21
* FORSYTH APT  CLOUDY    37  27  67 NW15G23   29.95R WCI  28
* LAUREL APT   CLOUDY    36  21  54 NW6        N/A   WCI  31
* ALZADA       N/A       34  29  82 W15        N/A   WCI  24
* HYSHAM       N/A       36  17  46 W11G16     N/A   WCI  28
* LAME DEER    N/A       30  25  82 W11G17     N/A   WCI  21
* REED POINT   N/A       32  28  85 S3         N/A
* ROSCOE HILL  N/A       25  22  88 VRB3G10    N/A
$$

REGIONAL REPORTS...DAKOTAS
CITY           SKY/WX    TMP DP  RH WIND       PRES   REMARKS
WILLISTON      CLOUDY    27  21  78 N21G29    29.87R WCI  13
DICKINSON      LGT SNOW  34  28  79 NW22      29.71R WCI  22
BEACH          CLOUDY    32  30  92 NW28G35   29.81R WCI  18
CROSBY         LGT SNOW  19  18  96 NE15G20   29.96R WCI   5
TIOGA          PTSUNNY   21  21 100 NE20      29.87R WCI   6
BISMARCK       CLOUDY    34  32  92 SW5       29.71R WCI  29
GRAND FORKS    CLOUDY    19  14  81 NE12      29.96R WCI   6
FARGO          CLOUDY    27  18  69 SE12      29.91S WCI  16
BUFFALO SD     PTCLDY    36  28  73 NW25G35   29.73R WCI  24
RAPID CITY     CLOUDY    36  28  73 NW23G35   29.83R WCI  24
$$

REGIONAL REPORTS...WYOMING/IDAHO/WASHINGTON
CITY           SKY/WX    TMP DP  RH WIND       PRES   REMARKS
GILLETTE       LGT SNOW  30  28  92 NW17      29.93R VSB 1    WCI  18
SHERIDAN       SNOW      30  27  89 NW23G31   30.04R VSB M1/4 WCI  17
CODY           CLOUDY    30  30 100 N7        30.00R VSB 3/4  WCI  23
YELLOWSTONE LA CLOUDY    28  27  96 CALM      30.03R
SALMON         CLOUDY    36  34  92 CALM      30.12R
MULLAN PASS    SNOW      28  25  89 CALM      30.09S VSB M1/4
SAND POINT     CLOUDY    37  37 100 NE6       30.18R WCI  32
SPOKANE        LGT RAIN  36  34  92 N7        30.19R WCI  30
$$

REGIONAL REPORTS...ALBERTA
CITY           SKY/WX    TMP DP  RH WIND       PRES   REMARKS
CALGARY        CLOUDY    30  23  75 N6        30.08R WCI  24
LETHBRIDGE     CLOUDY    34  27  76 SE3       30.11R
MEDICINE HAT   CLOUDY    27  25  92 W6        30.12R WCI  20
EDMONTON       CLOUDY    18  12  77 N3        30.15R
WATERTON GATE  N/A       34  19  54 E6         N/A   WCI  29
CARDSTON       N/A       32  23  69 NE2        N/A
MILK RIVER     N/A       30  25  82 N7         N/A   WCI  23
$$

REGIONAL REPORTS...SASKATCHEWAN
CITY           SKY/WX    TMP DP  RH WIND       PRES   REMARKS
SWIFT CURRENT  LGT SNOW  18  14  84 N7        30.05R WCI   9
MOOSE JAW      LGT SNOW  14  12  92 N14       30.07R WCI  -1
REGINA         PTSUNNY   14   9  80 N9        30.06R WCI   2
VAL MARIE      N/A       23  19  85 N17        N/A   WCI   9
ASSINIBOIA     N/A       18  16  92 N17        N/A   WCI   3
CORONACH       N/A       21  18  88 N16G22     N/A   WCI   7

$$




USA.gov is the U.S. government's official web portal to all federal, state and local government web resources and services.